When you browse on this site, cookies collect data to enhance your experience and personalize the content and advertising you see.
Visit our Privacy Policy to learn more. By continuing to use the site, you agree to this use of cookies and data.
  • In Hungary
  • List of Countries
  • For 7 days
  • Water Temperature
  • Satellite Maps
  • Weather Map
  • News
  • Weather Widgets
  • user-avatar
    Login

    Hourly Weather Baranivka

    Today, 19 February, Tuesday

    Time Temperature Precipitation Wind Pressure Humidity
    00:00 -4°C° 0 mm 1 mps 749 mmHg 92%
    01:00 -6°C° 0 mm 1 mps 750 mmHg 92%
    02:00 -6°C° 0 mm 0 mps 750 mmHg 91%
    03:00 -6°C° 0 mm 1 mps 750 mmHg 91%
    04:00 -6°C° 0 mm 1 mps 750 mmHg 90%
    05:00 -6°C° 0 mm 1 mps 750 mmHg 90%
    06:00 -7°C° 0 mm 2 mps 750 mmHg 90%
    07:00 -7°C° 0 mm 2 mps 750 mmHg 90%
    08:00 -7°C° 0 mm 2 mps 750 mmHg 90%
    09:00 -7°C° 0 mm 3 mps 749 mmHg 88%
    10:00 -6°C° 0 mm 3 mps 749 mmHg 85%
    11:00 -5°C° 0 mm 3 mps 749 mmHg 83%
    12:00 -4°C° 0 mm 4 mps 749 mmHg 82%
    13:00 -3°C° 0 mm 4 mps 748 mmHg 81%
    14:00 -4°C° 0 mm 5 mps 748 mmHg 80%
    15:00 -3°C° 0 mm 4 mps 748 mmHg 83%
    16:00 -4°C° 0 mm 4 mps 747 mmHg 85%
    17:00 -5°C° 0 mm 4 mps 747 mmHg 88%
    18:00 -6°C° 0 mm 5 mps 746 mmHg 87%
    19:00 -6°C° 0 mm 5 mps 746 mmHg 87%
    20:00 -6°C° 0 mm 6 mps 745 mmHg 86%
    21:00 -6°C° 0 mm 6 mps 745 mmHg 86%
    22:00 -6°C° 0 mm 6 mps 744 mmHg 86%
    23:00 -8°C° 0 mm 6 mps 744 mmHg 86%

    Tomorrow, 20 February, Wednesday

    Time Temperature Precipitation Wind Pressure Humidity
    00:00 -6°C° 0 mm 6 mps 743 mmHg 85%
    01:00 -6°C° 0 mm 6 mps 743 mmHg 84%
    02:00 -6°C° 0 mm 7 mps 742 mmHg 82%
    03:00 -6°C° 0 mm 7 mps 741 mmHg 84%
    04:00 -6°C° 0 mm 6 mps 741 mmHg 86%
    05:00 -6°C° 0 mm 6 mps 740 mmHg 88%
    06:00 -6°C° 0 mm 6 mps 740 mmHg 90%
    07:00 -5°C° 0 mm 6 mps 739 mmHg 92%
    08:00 -6°C° 0 mm 7 mps 739 mmHg 94%
    09:00 -4°C° 0 mm 6 mps 739 mmHg 93%
    10:00 -3°C° 0 mm 6 mps 739 mmHg 93%
    11:00 -3°C° 0 mm 6 mps 739 mmHg 93%
    12:00 -2°C° 0.2 mm 6 mps 738 mmHg 94%
    13:00 -1°C° 0.2 mm 5 mps 738 mmHg 94%
    14:00 -1°C° 0.2 mm 5 mps 738 mmHg 95%
    15:00 -1°C° 0.3 mm 5 mps 738 mmHg 95%
    16:00 -1°C° 0.3 mm 4 mps 738 mmHg 96%
    17:00 -2°C° 0.3 mm 4 mps 738 mmHg 96%
    18:00 -1°C° 0 mm 4 mps 738 mmHg 96%
    19:00 -1°C° 0 mm 4 mps 738 mmHg 96%
    20:00 -1°C° 0 mm 5 mps 738 mmHg 96%
    21:00 -1°C° 0 mm 5 mps 737 mmHg 95%
    22:00 -1°C° 0 mm 5 mps 737 mmHg 94%
    23:00 -2°C° 0 mm 5 mps 737 mmHg 92%

    Day after tomorrow, 21 February, Thursday

    Time Temperature Precipitation Wind Pressure Humidity
    00:00 -2°C° 0.1 mm 6 mps 736 mmHg 92%
    01:00 -2°C° 0.1 mm 6 mps 736 mmHg 92%
    02:00 -2°C° 0.1 mm 7 mps 736 mmHg 91%
    03:00 -3°C° 0.2 mm 7 mps 736 mmHg 88%
    04:00 -4°C° 0.2 mm 7 mps 736 mmHg 85%
    05:00 -4°C° 0.2 mm 6 mps 736 mmHg 81%
    06:00 -6°C° 0 mm 7 mps 736 mmHg 81%
    07:00 -6°C° 0 mm 7 mps 736 mmHg 81%
    08:00 -7°C° 0 mm 7 mps 737 mmHg 82%
    09:00 -6°C° 0 mm 7 mps 737 mmHg 80%
    10:00 -6°C° 0 mm 8 mps 737 mmHg 78%
    11:00 -6°C° 0 mm 8 mps 737 mmHg 76%
    12:00 -5°C° 0.1 mm 8 mps 737 mmHg 76%
    13:00 -5°C° 0.1 mm 8 mps 737 mmHg 75%
    14:00 -5°C° 0.1 mm 8 mps 738 mmHg 75%
    15:00 -6°C° 0.1 mm 7 mps 738 mmHg 75%
    16:00 -6°C° 0.1 mm 7 mps 738 mmHg 76%
    17:00 -7°C° 0.1 mm 7 mps 738 mmHg 76%
    18:00 -6°C° 0 mm 6 mps 739 mmHg 77%
    19:00 -8°C° 0 mm 6 mps 739 mmHg 78%
    20:00 -8°C° 0 mm 5 mps 740 mmHg 79%
    21:00 -8°C° 0 mm 5 mps 740 mmHg 80%
    22:00 -8°C° 0 mm 5 mps 740 mmHg 82%
    23:00 -8°C° 0 mm 5 mps 740 mmHg 84%

    22 February, Friday

    Time Temperature Precipitation Wind Pressure Humidity
    00:00 -8°C° 0 mm 5 mps 741 mmHg 84%
    01:00 -8°C° 0 mm 5 mps 741 mmHg 85%
    02:00 -8°C° 0 mm 5 mps 741 mmHg 86%
    03:00 -8°C° 0 mm 5 mps 741 mmHg 85%
    04:00 -8°C° 0 mm 5 mps 742 mmHg 84%
    05:00 -10°C° 0 mm 6 mps 742 mmHg 82%
    06:00 -10°C° 0 mm 6 mps 742 mmHg 81%
    07:00 -11°C° 0 mm 6 mps 743 mmHg 80%
    08:00 -12°C° 0 mm 7 mps 744 mmHg 78%
    09:00 -12°C° 0 mm 7 mps 744 mmHg 76%
    10:00 -13°C° 0 mm 7 mps 745 mmHg 74%
    11:00 -13°C° 0 mm 7 mps 746 mmHg 71%
    12:00 -13°C° 0 mm 7 mps 746 mmHg 71%
    13:00 -13°C° 0 mm 7 mps 747 mmHg 70%
    14:00 -13°C° 0 mm 7 mps 747 mmHg 69%
    15:00 -13°C° 0 mm 7 mps 748 mmHg 70%
    16:00 -12°C° 0 mm 6 mps 748 mmHg 71%
    17:00 -12°C° 0 mm 6 mps 749 mmHg 72%
    18:00 -12°C° 0 mm 5 mps 749 mmHg 75%
    19:00 -12°C° 0 mm 5 mps 749 mmHg 78%
    20:00 -12°C° 0 mm 4 mps 750 mmHg 80%
    21:00 -12°C° 0 mm 4 mps 750 mmHg 81%
    22:00 -12°C° 0 mm 4 mps 750 mmHg 82%
    23:00 -12°C° 0 mm 4 mps 750 mmHg 82%

    23 February, Saturday

    Time Temperature Precipitation Wind Pressure Humidity
    00:00 -13°C° 0 mm 5 mps 751 mmHg 82%
    01:00 -13°C° 0 mm 5 mps 751 mmHg 82%
    02:00 -13°C° 0 mm 5 mps 751 mmHg 83%
    03:00 -14°C° 0 mm 5 mps 751 mmHg 82%
    04:00 -14°C° 0 mm 5 mps 751 mmHg 82%
    05:00 -15°C° 0 mm 4 mps 752 mmHg 81%
    06:00 -15°C° 0 mm 5 mps 752 mmHg 81%
    07:00 -15°C° 0 mm 5 mps 752 mmHg 81%
    08:00 -15°C° 0 mm 5 mps 753 mmHg 82%
    09:00 -14°C° 0 mm 5 mps 753 mmHg 79%
    10:00 -14°C° 0 mm 4 mps 753 mmHg 76%
    11:00 -12°C° 0 mm 4 mps 753 mmHg 73%
    12:00 -12°C° 0 mm 4 mps 753 mmHg 73%
    13:00 -11°C° 0 mm 4 mps 753 mmHg 73%
    14:00 -11°C° 0 mm 4 mps 753 mmHg 72%
    15:00 -11°C° 0 mm 4 mps 753 mmHg 74%
    16:00 -11°C° 0 mm 4 mps 753 mmHg 75%
    17:00 -11°C° 0 mm 4 mps 753 mmHg 77%
    18:00 -12°C° 0 mm 4 mps 753 mmHg 80%
    19:00 -12°C° 0 mm 3 mps 753 mmHg 82%
    20:00 -12°C° 0 mm 3 mps 754 mmHg 85%
    21:00 -13°C° 0 mm 3 mps 754 mmHg 87%
    22:00 -13°C° 0 mm 3 mps 754 mmHg 88%
    23:00 -14°C° 0 mm 3 mps 754 mmHg 89%

    24 February, Sunday

    Time Temperature Precipitation Wind Pressure Humidity
    00:00 -14°C° 0 mm 3 mps 754 mmHg 90%
    01:00 -14°C° 0 mm 3 mps 754 mmHg 90%
    02:00 -14°C° 0 mm 3 mps 755 mmHg 90%
    03:00 -15°C° 0 mm 3 mps 755 mmHg 90%
    04:00 -15°C° 0 mm 3 mps 755 mmHg 90%
    05:00 -15°C° 0 mm 3 mps 755 mmHg 91%
    06:00 -15°C° 0 mm 3 mps 756 mmHg 90%
    07:00 -15°C° 0 mm 3 mps 756 mmHg 88%
    08:00 -16°C° 0 mm 4 mps 756 mmHg 87%
    09:00 -15°C° 0 mm 4 mps 756 mmHg 85%
    10:00 -15°C° 0 mm 4 mps 757 mmHg 83%
    11:00 -14°C° 0 mm 4 mps 757 mmHg 81%
    12:00 -12°C° 0 mm 4 mps 757 mmHg 81%
    13:00 -12°C° 0 mm 4 mps 756 mmHg 81%
    14:00 -11°C° 0 mm 4 mps 756 mmHg 81%
    15:00 -12°C° 0 mm 4 mps 756 mmHg 83%
    16:00 -12°C° 0 mm 3 mps 756 mmHg 85%
    17:00 -13°C° 0 mm 3 mps 756 mmHg 87%
    18:00 -13°C° 0 mm 3 mps 755 mmHg 88%
    19:00 -14°C° 0 mm 3 mps 755 mmHg 89%
    20:00 -13°C° 0 mm 2 mps 755 mmHg 90%
    21:00 -13°C° 0 mm 2 mps 755 mmHg 91%
    22:00 -14°C° 0 mm 2 mps 754 mmHg 91%
    23:00 -12°C° 0 mm 1 mps 754 mmHg 92%
    Show more